When you browse on this site, cookies collect data to enhance your experience and personalize the content and advertising you see.
Visit our Privacy Policy to learn more. By continuing to use the site, you agree to this use of cookies and data.
  • In Deutschland
  • Länderverzeichnis
  • Für 7 Tage
  • Wassertemperatur
  • Wetterkarte
  • Widgets
  • user-avatar
    Anmelden

    Stündliche Wetter Oldebroek

    Heute, 17 Februar, Montag

    Zeit Temperatur Niederschläge Wind Luftdruck Luftfeuchtigkeit
    00:00 +6°C° 0 mm 8 m/S 751 mmHg 76%
    01:00 +5°C° 0 mm 8 m/S 752 mmHg 74%
    02:00 +5°C° 0 mm 9 m/S 752 mmHg 71%
    03:00 +5°C° 0 mm 9 m/S 753 mmHg 69%
    04:00 +3°C° 0 mm 9 m/S 754 mmHg 70%
    05:00 +4°C° 0 mm 8 m/S 754 mmHg 71%
    06:00 +4°C° 0 mm 7 m/S 755 mmHg 77%
    07:00 +4°C° 0 mm 8 m/S 755 mmHg 76%
    08:00 +5°C° 0 mm 9 m/S 755 mmHg 75%
    09:00 +5°C° 0 mm 10 m/S 755 mmHg 74%
    10:00 +6°C° 0 mm 10 m/S 755 mmHg 71%
    11:00 +7°C° 0 mm 10 m/S 755 mmHg 68%
    12:00 +7°C° 0 mm 8 m/S 755 mmHg 66%
    13:00 +7°C° 0.3 mm 8 m/S 755 mmHg 66%
    14:00 +7°C° 0.3 mm 8 m/S 755 mmHg 66%
    15:00 +6°C° 0.3 mm 8 m/S 755 mmHg 66%
    16:00 +6°C° 0.1 mm 8 m/S 755 mmHg 70%
    17:00 +6°C° 0.1 mm 7 m/S 756 mmHg 74%
    18:00 +5°C° 0.1 mm 7 m/S 756 mmHg 77%
    19:00 +5°C° 0.2 mm 7 m/S 756 mmHg 80%
    20:00 +5°C° 0.2 mm 6 m/S 757 mmHg 82%
    21:00 +5°C° 0.2 mm 6 m/S 757 mmHg 84%
    22:00 +4°C° 0.1 mm 6 m/S 758 mmHg 84%
    23:00 +4°C° 0.1 mm 6 m/S 758 mmHg 84%

    Morgen, 18 Februar, Dienstag

    Zeit Temperatur Niederschläge Wind Luftdruck Luftfeuchtigkeit
    00:00 +4°C° 0.1 mm 6 m/S 759 mmHg 84%
    01:00 +4°C° 0.1 mm 6 m/S 759 mmHg 82%
    02:00 +3°C° 0.1 mm 6 m/S 760 mmHg 81%
    03:00 +3°C° 0.1 mm 6 m/S 760 mmHg 79%
    04:00 +3°C° 0 mm 6 m/S 761 mmHg 78%
    05:00 +2°C° 0 mm 6 m/S 761 mmHg 76%
    06:00 +2°C° 0 mm 6 m/S 762 mmHg 75%
    07:00 +2°C° 0 mm 7 m/S 762 mmHg 73%
    08:00 +3°C° 0 mm 7 m/S 763 mmHg 71%
    09:00 +4°C° 0 mm 7 m/S 763 mmHg 69%
    10:00 +4°C° 0.1 mm 8 m/S 763 mmHg 67%
    11:00 +5°C° 0.1 mm 8 m/S 763 mmHg 65%
    12:00 +6°C° 0.1 mm 9 m/S 763 mmHg 63%
    13:00 +6°C° 0 mm 9 m/S 763 mmHg 63%
    14:00 +6°C° 0 mm 8 m/S 762 mmHg 62%
    15:00 +6°C° 0 mm 8 m/S 762 mmHg 62%
    16:00 +5°C° 0 mm 8 m/S 761 mmHg 65%
    17:00 +5°C° 0 mm 7 m/S 761 mmHg 68%
    18:00 +4°C° 0 mm 7 m/S 761 mmHg 71%
    19:00 +4°C° 0.2 mm 7 m/S 760 mmHg 76%
    20:00 +4°C° 0.2 mm 8 m/S 759 mmHg 81%
    21:00 +4°C° 0.2 mm 8 m/S 759 mmHg 86%
    22:00 +4°C° 0.3 mm 8 m/S 758 mmHg 85%
    23:00 +4°C° 0.3 mm 8 m/S 757 mmHg 83%

    übermorgen, 19 Februar, Mittwoch

    Zeit Temperatur Niederschläge Wind Luftdruck Luftfeuchtigkeit
    00:00 +4°C° 0.3 mm 7 m/S 757 mmHg 82%
    01:00 +4°C° 0.7 mm 8 m/S 757 mmHg 80%
    02:00 +2°C° 0.7 mm 8 m/S 757 mmHg 79%
    03:00 +2°C° 0.7 mm 8 m/S 756 mmHg 77%
    04:00 +2°C° 0.1 mm 7 m/S 757 mmHg 77%
    05:00 +2°C° 0.1 mm 7 m/S 758 mmHg 77%
    06:00 +1°C° 0.1 mm 6 m/S 759 mmHg 77%
    07:00 +2°C° 0.1 mm 7 m/S 759 mmHg 75%
    08:00 +3°C° 0.1 mm 7 m/S 760 mmHg 73%
    09:00 +3°C° 0.1 mm 7 m/S 760 mmHg 71%
    10:00 +3°C° 0 mm 7 m/S 761 mmHg 69%
    11:00 +4°C° 0 mm 7 m/S 761 mmHg 68%
    12:00 +4°C° 0 mm 8 m/S 762 mmHg 66%
    13:00 +4°C° 0 mm 7 m/S 762 mmHg 66%
    14:00 +4°C° 0 mm 7 m/S 762 mmHg 67%
    15:00 +4°C° 0 mm 7 m/S 762 mmHg 67%
    16:00 +3°C° 0 mm 6 m/S 762 mmHg 70%
    17:00 +2°C° 0 mm 5 m/S 762 mmHg 74%
    18:00 +1°C° 0 mm 4 m/S 762 mmHg 77%
    19:00 +3°C° 0 mm 4 m/S 762 mmHg 78%
    20:00 +2°C° 0 mm 5 m/S 762 mmHg 80%
    21:00 +2°C° 0 mm 5 m/S 761 mmHg 81%
    22:00 +3°C° 0.1 mm 6 m/S 761 mmHg 84%
    23:00 +3°C° 0.1 mm 6 m/S 760 mmHg 87%

    20 Februar, Donnerstag

    Zeit Temperatur Niederschläge Wind Luftdruck Luftfeuchtigkeit
    00:00 +4°C° 0.1 mm 7 m/S 760 mmHg 90%
    01:00 +4°C° 0.2 mm 7 m/S 759 mmHg 90%
    02:00 +5°C° 0.2 mm 7 m/S 758 mmHg 89%
    03:00 +5°C° 0.2 mm 7 m/S 758 mmHg 89%
    04:00 +5°C° 0.1 mm 7 m/S 758 mmHg 88%
    05:00 +5°C° 0.1 mm 7 m/S 758 mmHg 87%
    06:00 +5°C° 0.1 mm 7 m/S 757 mmHg 86%
    07:00 +5°C° 0 mm 7 m/S 757 mmHg 85%
    08:00 +5°C° 0 mm 7 m/S 757 mmHg 83%
    09:00 +5°C° 0 mm 7 m/S 757 mmHg 82%
    10:00 +6°C° 0 mm 8 m/S 757 mmHg 78%
    11:00 +6°C° 0 mm 8 m/S 757 mmHg 75%
    12:00 +7°C° 0 mm 9 m/S 757 mmHg 71%
    13:00 +7°C° 0 mm 9 m/S 756 mmHg 71%
    14:00 +7°C° 0 mm 9 m/S 756 mmHg 71%
    15:00 +7°C° 0 mm 9 m/S 755 mmHg 71%
    16:00 +7°C° 0.1 mm 9 m/S 755 mmHg 73%
    17:00 +7°C° 0.1 mm 9 m/S 754 mmHg 75%
    18:00 +7°C° 0.1 mm 10 m/S 754 mmHg 77%
    19:00 +6°C° 0.3 mm 9 m/S 755 mmHg 75%
    20:00 +5°C° 0.3 mm 9 m/S 756 mmHg 74%
    21:00 +5°C° 0.3 mm 8 m/S 756 mmHg 73%
    22:00 +4°C° 0 mm 8 m/S 758 mmHg 73%
    23:00 +3°C° 0 mm 7 m/S 759 mmHg 74%

    21 Februar, Freitag

    Zeit Temperatur Niederschläge Wind Luftdruck Luftfeuchtigkeit
    00:00 +2°C° 0 mm 6 m/S 760 mmHg 74%
    01:00 +2°C° 0 mm 6 m/S 760 mmHg 73%
    02:00 +2°C° 0 mm 7 m/S 761 mmHg 72%
    03:00 +2°C° 0 mm 7 m/S 762 mmHg 71%
    04:00 +2°C° 0 mm 7 m/S 763 mmHg 72%
    05:00 +2°C° 0 mm 7 m/S 764 mmHg 73%
    06:00 +2°C° 0 mm 7 m/S 764 mmHg 73%
    13:00 +5°C° 0 mm 7 m/S 768 mmHg 63%
    14:00 +5°C° 0 mm 7 m/S 768 mmHg 63%
    15:00 +5°C° 0 mm 8 m/S 768 mmHg 62%
    16:00 +5°C° 0 mm 7 m/S 768 mmHg 65%
    17:00 +4°C° 0 mm 7 m/S 768 mmHg 68%
    18:00 +3°C° 0 mm 6 m/S 767 mmHg 72%
    19:00 +4°C° 0 mm 7 m/S 767 mmHg 72%
    20:00 +4°C° 0 mm 7 m/S 767 mmHg 72%
    21:00 +5°C° 0 mm 8 m/S 767 mmHg 72%
    22:00 +5°C° 0 mm 8 m/S 766 mmHg 73%
    23:00 +5°C° 0 mm 9 m/S 766 mmHg 74%

    22 Februar, Samstag

    Zeit Temperatur Niederschläge Wind Luftdruck Luftfeuchtigkeit
    00:00 +5°C° 0 mm 9 m/S 766 mmHg 76%
    01:00 +5°C° 0.1 mm 10 m/S 765 mmHg 76%
    02:00 +5°C° 0.1 mm 10 m/S 765 mmHg 77%
    03:00 +5°C° 0.1 mm 10 m/S 764 mmHg 77%
    04:00 +5°C° 0.2 mm 10 m/S 764 mmHg 78%
    05:00 +5°C° 0.2 mm 10 m/S 764 mmHg 79%
    06:00 +4°C° 0.2 mm 11 m/S 763 mmHg 80%
    07:00 +6°C° 0 mm 11 m/S 763 mmHg 80%
    08:00 +6°C° 0 mm 11 m/S 763 mmHg 81%
    09:00 +6°C° 0 mm 11 m/S 763 mmHg 82%
    10:00 +7°C° 0 mm 11 m/S 763 mmHg 82%
    11:00 +7°C° 0 mm 11 m/S 763 mmHg 82%
    12:00 +8°C° 0 mm 11 m/S 764 mmHg 82%
    13:00 +8°C° 0 mm 11 m/S 763 mmHg 82%
    14:00 +9°C° 0 mm 11 m/S 763 mmHg 81%
    15:00 +9°C° 0 mm 10 m/S 763 mmHg 80%
    16:00 +9°C° 0 mm 10 m/S 763 mmHg 80%
    17:00 +9°C° 0 mm 10 m/S 763 mmHg 80%
    18:00 +11°C° 0 mm 10 m/S 763 mmHg 80%
    19:00 +10°C° 0.3 mm 9 m/S 764 mmHg 82%
    20:00 +10°C° 0.3 mm 9 m/S 764 mmHg 84%
    21:00 +10°C° 0.3 mm 9 m/S 764 mmHg 85%
    22:00 +10°C° 0.1 mm 8 m/S 764 mmHg 84%
    23:00 +10°C° 0.1 mm 8 m/S 764 mmHg 83%
    Mehr zeigen